Regional Weather Roundup
Issued by NWS Newport/Morehead, NC

Home | Current Version | Previous Version | Text Only | Print | Product List | Glossary On
Versions: 1 2 3 4 5 6 7 8 9 10 11 12 13 14 15 16 17 18 19 20 21 22 23 24 25 26 27 28 29 30 31 32 33 34 35 36 37 38 39 40 41 42 43 44 45 46 47 48 49 50
000
ASUS42 KMHX 241722
RWRMHX
WEATHER ROUNDUP FOR EASTERN NORTH CAROLINA
NATIONAL WEATHER SERVICE NEWPORT/MOREHEAD CITY NC
100 PM EDT FRI OCT 24 2014

NOTE: "FAIR" INDICATES FEW OR NO CLOUDS BELOW 12,000 FEET
WITH NO SIGNIFICANT WEATHER AND/OR OBSTRUCTIONS TO VISIBILITY

NCZ015>017-031-032-045>047-102-103-241800-
NORTH COAST

CITY           SKY/WX    TMP DP  RH WIND       PRES   REMARKS
EDENTON        MOSUNNY   67  47  48 NW9       29.97F
ELIZABETH CITY MOSUNNY   66  46  48 NW13      29.97F
KITTY HAWK     MOSUNNY   64  47  55 W7        29.95F
MANTEO         SUNNY     62  47  58 W6        29.97F

$$

NCZ045>047-081-094-103-104-241800-
CENTRAL COAST

CITY           SKY/WX    TMP DP  RH WIND       PRES   REMARKS
FRISCO         SUNNY     62  48  60 NW9       29.98F
SWANQUARTER      N/A     68 N/A N/A NW6G15    29.94F

$$

NCZ095-097-098-100-101-241800-
SOUTHERN COAST

CITY           SKY/WX    TMP DP  RH WIND       PRES   REMARKS
BEAUFORT       CLOUDY    66  47  50 NW7       30.01F
CEDAR ISLAND     N/A     63 N/A N/A NW12G17   30.03S
JACKSONVILLE   PTSUNNY   66  46  48 VRB3      30.02F
PINEY ISLAND   MOSUNNY   67  46  47 N10       29.99F
WILMINGTON     PTSUNNY   67  47  48 CALM      30.03F


$$

NCZ011>013-027>030-043-044-078>080-089-090>093-098-241800-
COASTAL PLAIN

CITY           SKY/WX    TMP DP  RH WIND       PRES   REMARKS
AHOSKIE        MOSUNNY   66  42  42 N6        29.99F
CLINTON        MOSUNNY   67  48  49 CALM      30.02F
ELIZABETHTOWN  MOSUNNY   67  46  47 CALM      30.02F
GOLDSBORO      MOSUNNY   67  51  57 W5        30.00F
GREENVILLE     MOSUNNY   68  43  40 N3        30.02F
HAVELOCK       CLOUDY    66  45  46 NW6       30.02F
KENANSVILLE    SUNNY     68  45  42 SW5       30.02F
KINSTON        PTSUNNY   68  46  45 W3        30.02F
NEW BERN       PTSUNNY   69  46  43 VRB6      30.01F
RICHLANDS      PTSUNNY   70  46  43 CALM      30.02F
ROCKY MOUNT    MOSUNNY   68  46  45 CALM      30.01F
WASHINGTON     MOSUNNY   66  47  50 NW5       30.00F
WHITEVILLE     MOSUNNY   66  45  47 CALM      30.02F

$$

AMZ130-135-150-152-154-156-158-170-250-252-270-ANZ085-086-088-633-658-670-241800-
MARINE OBSERVATIONS

STATION/POSITION TIME  TEMP    WIND        PRES    WAVE   SWELL
                       AIR SEA DIR/SP/G            HT/PER HT/PER
                 (UTC) (F)     (DEG/KT/KT) (MB)    (FT/S) (FT/S)
CHESAPEAKE LIGHT 1700   60     320/ 20/ 23 1014.0
64 E VA BEACH    1700   61 67  320/ 17/ 21 1012.7    7/ 6
DUCK             1700   61 66  340/ 12/ 15 1013.5
2 E DUCK         1700                        N/A     4/ 6
10 NE DUCK       1700      68                N/A     5/ 6
OREGON INLET     1700   61 63  310/  9/ 12 1014.6
13E OREGON INLT  1700      70                N/A     5/ 7   2/11
HATTERAS CG      1700   61 63  320/ 12/ 16 1015.3
DIAMOND BUOY     1700   62     320/ 14/ 17 1015.1    4/ 9   2/ 9
17 S OCRACOKE    NOT AVBL
CAPE LOOKOUT     1700   64     330/  6/  8 1016.1
BEAUFORT LAB     1700   64 67  350/  6/ 10 1015.3
30 SE NEW RIVER  1700   65 75   10/ 10/ 12 1016.3    3/10   3/10
5 SE WRIGHTSVLE  1700   60 72   40/  6/  8   N/A
225 S CAPE HAT   1641   73 78  330/ 10/ 12 1015.5    5/10   5/10
41 SE CHARLESTON 1700   69 78   10/  6/ 10 1016.6    3/11   3/11

$$



USA.gov is the U.S. government's official web portal to all federal, state and local government web resources and services.